Tracking 31027 objects as of 19-Jul-2025
HD Live streaming from Space Station
objects crossing your sky now

STARLINK-2103

Track STARLINK-2103 now!
10-day predictions
STARLINK-2103 is classified as:


NORAD ID: 47383
Int'l Code: 2021-005AL
Perigee: 553.5 km
Apogee: 555.2 km
Inclination: 53.1 °
Period: 95.6 minutes
Semi major axis: 6925 km
RCS: Unknown
Launch date: January 20, 2021
Source: United States (US)
Launch site: AIR FORCE EASTERN TEST RANGE (AFETR)
Your satellite tracking list
GALASSIA
Track 1 satellite(s)




NASA's NSSDC Master Catalog

Two Line Element Set (TLE):
1 47383U 21005AL  25199.43635575  .00001583  00000-0  12514-3 0  9990
2 47383  53.0568 353.5015 0001262  90.8848 269.2286 15.06408111248291
Source of the keplerian elements: AFSPC